GEFSSGP_con_cape1000_318.txt.gz
Probability
32 16 3 0 0 0 0 0 0 0 0 0 0 0 0 0 0 0 0 0 0 6 23 26 42 45 42 45 45 45 48 48 48 45 42 42 42 45 55 55 48 45 55 52 55 55 61 61 58
23 10 0 0 0 0 0 0 0 0 0 0 0 0 0 0 0 0 0 6 10 16 23 35 48 45 52 45 42 48 52 48 42 39 39 42 42 42 45 45 39 42 42 52 52 48 45 48 52
13 3 0 0 0 0 0 0 0 0 0 0 0 0 0 0 0 0 6 10 13 10 16 48 55 45 42 45 45 45 42 39 35 35 45 45 42 42 42 35 39 45 39 39 42 45 42 45 48
3 0 0 0 0 0 0 0 0 0 0 0 0 0 0 0 3 0 10 16 10 10 19 39 55 52 48 45 42 32 35 35 39 35 32 39 42 39 35 35 42 35 35 35 32 42 42 42 48
0 0 0 0 0 0 0 0 0 0 0 0 0 0 0 3 3 13 13 13 10 10 23 32 45 42 45 45 45 35 35 35 35 32 32 26 26 32 32 32 32 26 32 26 26 29 35 32 39
0 0 0 0 0 0 0 0 0 0 0 0 0 0 0 6 10 10 13 13 13 16 26 35 45 39 42 42 42 39 42 35 32 29 29 23 23 26 23 29 26 23 26 23 26 29 16 29 45
0 0 0 0 0 0 0 0 0 0 0 0 0 0 0 6 10 10 10 13 10 13 16 23 32 32 35 42 42 32 32 32 32 29 23 19 19 26 26 26 32 26 23 23 26 29 23 29 29
0 0 0 0 0 0 0 0 0 0 0 3 0 0 0 3 10 6 6 6 6 16 16 19 19 23 19 26 35 32 35 32 26 29 29 29 29 26 23 19 26 23 23 19 19 26 23 29 29
0 0 0 0 0 0 0 0 0 0 0 3 0 0 0 10 3 6 3 3 10 13 10 13 16 10 6 13 32 29 32 26 23 16 23 19 3 0 10 16 19 23 26 23 13 16 13 10 13
0 0 0 0 0 0 0 0 0 0 3 3 3 6 10 10 13 10 10 6 3 10 10 10 6 6 3 6 10 10 10 6 3 0 0 0 0 0 3 3 23 23 23 16 16 13 10 3 3
0 0 0 0 0 0 0 0 0 0 0 3 3 6 16 13 6 10 13 6 3 3 6 6 3 3 3 0 3 3 0 0 0 0 0 0 0 0 0 0 0 0 3 0 3 0 3 3 3
0 0 0 0 0 0 0 0 0 0 0 0 3 3 16 13 10 10 10 6 6 6 6 10 3 3 0 0 0 0 0 0 0 0 0 0 0 0 0 0 0 0 0 0 0 0 0 0 3
0 0 0 0 0 0 0 0 0 0 0 0 3 13 16 13 10 6 6 6 6 6 6 3 0 0 0 0 0 0 0 0 0 0 0 0 0 0 0 0 0 0 0 0 0 0 0 0 0
0 0 0 0 0 0 0 0 0 0 0 3 3 13 16 16 10 6 6 6 6 6 6 6 6 0 0 0 0 0 0 0 0 0 0 0 0 0 0 0 0 0 0 0 0 0 0 0 0
0 0 0 0 0 0 0 0 0 0 3 3 3 10 13 16 10 6 6 6 6 6 6 6 6 6 0 0 0 0 0 0 0 0 0 0 0 0 0 0 0 0 0 0 0 0 0 0 0
0 0 0 0 0 0 0 0 0 0 3 3 3 3 6 6 3 6 10 3 6 6 3 6 6 6 6 0 0 0 0 0 0 0 0 0 0 0 0 0 0 0 0 0 0 0 0 0 0
0 0 0 0 0 0 0 0 0 0 3 3 3 3 3 3 3 6 10 6 3 3 3 6 6 6 6 0 0 0 0 0 0 0 0 0 0 0 0 0 0 0 0 0 0 0 0 0 0
0 0 0 0 0 0 0 0 0 0 3 3 3 3 3 3 3 3 10 10 3 3 3 6 6 6 6 0 0 0 0 0 0 0 0 0 0 0 0 0 0 0 0 0 0 0 0 0 0
0 0 0 0 0 0 0 0 0 0 0 0 0 3 3 3 3 3 6 3 3 6 6 6 6 6 3 0 0 0 0 0 0 0 0 0 0 0 0 0 0 0 0 0 0 0 0 0 0
0 0 0 0 0 0 0 0 0 0 0 0 0 0 3 3 3 3 0 0 3 3 6 6 6 6 3 0 0 0 0 0 0 0 0 0 0 0 0 0 0 0 0 0 0 0 0 0 0
0 0 0 0 0 0 0 0 0 0 0 0 0 0 0 0 0 3 0 0 0 3 3 6 3 3 3 0 0 0 0 0 0 0 0 0 0 0 0 0 0 0 0 0 0 0 0 0 0
0 0 0 0 0 0 0 0 0 0 0 0 0 0 0 0 0 0 0 0 0 0 0 3 3 3 3 0 0 3 0 0 0 0 0 0 0 0 0 0 0 0 0 0 0 0 0 0 0
0 0 0 0 0 0 0 0 0 0 0 0 0 0 0 0 0 0 0 0 0 0 0 3 3 3 3 0 0 0 0 0 0 0 0 0 0 0 0 0 0 0 0 0 0 0 0 0 0
0 0 0 0 0 0 0 0 0 0 0 0 0 0 0 0 0 0 0 0 0 0 0 3 3 3 3 0 0 0 0 0 0 0 0 0 0 0 0 0 0 0 0 0 0 0 0 0 0
0 0 0 0 0 0 0 0 0 0 0 0 0 0 0 0 0 0 0 0 0 0 0 3 3 3 3 0 0 0 0 0 0 0 0 0 0 0 0 0 0 0 0 0 0 0 0 0 0
0 0 0 0 0 0 0 0 0 0 0 0 0 0 0 0 0 0 0 0 0 0 0 0 3 3 3 3 0 3 0 0 0 0 0 0 0 0 0 0 0 0 0 0 0 0 0 0 0
0 0 0 0 0 0 0 0 0 0 0 0 0 0 0 0 0 0 0 0 0 0 0 0 3 3 3 3 3 3 0 0 0 0 0 0 0 0 0 0 0 0 0 0 0 0 0 0 0
0 0 0 0 0 0 0 0 0 0 0 0 0 0 0 0 0 0 0 0 0 0 0 0 3 3 3 3 3 3 3 0 0 0 0 0 0 0 0 0 0 0 0 0 0 0 0 0 0
0 0 0 0 0 0 0 0 0 0 0 0 0 0 0 0 0 0 0 0 0 0 0 0 0 3 3 3 3 3 3 0 0 0 0 0 0 0 0 0 0 0 0 0 0 0 0 0 0
0 0 0 0 0 0 0 0 0 0 0 0 0 0 0 0 0 0 0 0 0 0 0 0 0 3 3 3 3 3 3 3 0 0 0 0 0 0 0 0 0 0 0 0 0 0 0 0 0

GEFSSGP_con_cape1000_324.txt.gz
Probability
39 26 23 23 10 0 0 0 0 0 0 3 0 0 0 0 0 3 19 10 10 10 10 23 39 39 42 45 42 42 45 42 45 48 48 45 45 48 45 48 45 42 42 52 55 55 55 58 55
19 26 16 10 0 0 0 0 0 0 0 6 3 0 0 3 3 10 16 13 13 10 13 23 42 42 42 35 39 39 39 35 39 45 42 42 45 48 45 48 39 45 42 45 42 48 48 55 58
16 13 6 3 0 0 0 0 0 0 0 3 3 0 0 3 3 13 23 19 13 10 13 26 42 45 45 35 35 39 35 35 35 39 42 45 45 35 32 42 39 26 39 42 45 45 42 42 52
13 10 3 0 0 0 0 0 0 3 3 3 3 0 3 6 13 13 26 23 13 13 16 23 45 39 39 42 35 42 32 35 35 39 42 39 35 35 35 29 35 29 26 32 35 35 39 39 42
10 0 0 0 0 0 0 0 0 0 0 0 0 3 3 13 16 23 23 19 13 13 16 23 32 35 35 35 39 35 26 35 35 35 39 35 32 32 29 26 26 29 26 29 32 35 35 39 29
0 0 0 0 0 0 0 0 0 0 0 0 0 0 3 13 19 23 23 26 23 23 16 23 35 39 42 45 45 35 29 29 26 26 35 35 29 32 29 29 26 26 26 26 26 23 32 39 35
0 0 0 0 0 0 0 0 0 0 0 0 0 0 10 16 26 26 23 26 16 16 19 29 29 26 39 42 45 42 35 32 29 23 32 32 26 29 26 23 19 19 26 26 26 23 26 29 35
0 0 0 0 0 0 0 0 0 0 0 0 0 0 10 13 26 26 26 26 19 16 23 32 29 26 26 26 35 42 35 32 32 26 26 29 26 23 19 10 16 16 23 13 16 13 23 23 29
3 0 0 0 0 0 0 0 0 0 0 3 3 0 3 19 23 26 26 23 23 23 19 26 26 23 19 23 23 26 29 23 23 26 23 26 10 10 10 10 13 16 19 16 13 6 13 10 16
0 0 0 0 0 0 0 3 0 0 3 3 3 10 19 23 19 23 23 23 23 23 19 19 23 23 16 16 26 23 16 19 16 19 10 16 6 6 3 6 13 16 19 13 6 6 6 3 6
0 0 0 0 0 0 0 3 3 0 0 3 3 10 19 23 19 19 19 19 19 19 16 16 16 16 19 23 26 23 19 19 13 10 10 16 6 3 0 13 13 10 6 3 3 3 3 3 3
0 0 3 3 3 3 0 3 3 3 0 3 3 6 16 19 19 19 16 16 19 16 16 16 16 13 13 13 16 13 10 13 10 6 3 6 13 6 6 6 10 6 10 10 6 6 3 0 0
0 3 3 3 3 0 0 0 0 0 3 3 3 6 16 19 16 19 19 16 19 16 16 16 16 10 13 16 19 13 10 6 6 10 3 3 10 6 6 6 10 3 3 6 10 10 0 3 3
3 3 0 0 0 0 0 0 0 0 3 3 3 6 13 19 16 16 19 16 13 16 13 16 13 13 10 13 19 13 10 13 6 6 3 3 3 6 6 3 0 0 6 3 6 3 3 3 3
0 0 0 0 0 0 0 0 0 0 0 3 3 6 10 10 13 16 16 19 13 16 13 16 16 16 16 16 13 16 13 10 10 13 10 6 6 3 0 6 3 0 0 6 6 0 3 0 0
0 0 0 0 0 0 0 0 0 0 0 0 3 6 10 10 10 13 13 13 10 16 16 16 16 16 19 16 16 16 16 6 6 6 6 6 6 6 3 0 3 3 0 3 6 3 3 0 0
0 0 0 0 0 0 0 0 0 0 0 0 3 6 6 10 10 13 13 13 13 10 13 16 16 16 16 13 16 16 16 16 6 6 6 3 3 3 3 6 6 3 3 3 0 0 0 0 0
0 0 0 0 0 0 0 0 0 0 0 3 3 3 3 3 10 10 10 6 10 10 10 16 16 19 16 13 13 19 16 10 10 6 3 3 3 3 3 6 6 0 0 0 0 0 0 3 3
0 0 0 0 0 0 0 0 0 0 0 0 3 3 3 6 10 10 10 6 10 10 10 10 16 16 16 19 16 16 16 16 13 13 6 3 3 3 3 0 3 3 3 0 0 0 0 3 3
0 0 0 0 0 0 0 0 0 0 0 0 0 0 0 3 6 10 10 10 6 13 13 13 16 16 16 19 19 19 13 13 16 16 10 3 3 3 0 3 3 0 3 0 3 0 0 0 3
0 0 0 0 0 0 0 0 0 0 0 0 0 0 0 0 0 3 6 6 10 10 10 10 13 16 19 19 19 16 13 16 13 13 10 6 3 0 0 0 0 0 0 0 0 0 6 3 3
0 0 0 0 0 0 0 0 0 0 0 0 3 0 0 6 3 6 10 10 13 10 10 10 10 10 16 19 16 13 13 10 10 13 10 10 3 3 0 0 0 0 0 0 0 0 3 3 3
0 0 0 0 0 0 0 0 0 0 0 0 3 3 3 10 10 13 13 13 10 10 13 6 10 3 6 10 13 13 13 13 16 10 10 10 10 3 0 0 0 0 0 0 0 0 0 0 0
0 0 0 0 0 0 0 0 0 0 0 0 0 3 6 6 13 13 16 16 10 16 13 13 6 6 6 10 10 13 10 13 13 10 10 10 6 10 0 0 0 0 0 0 0 0 3 3 0
0 0 0 0 0 0 0 0 0 0 0 0 0 0 6 6 6 13 13 16 13 13 10 10 10 10 6 6 10 13 13 13 13 13 10 10 6 6 6 0 0 0 0 0 0 0 0 3 0
0 0 0 0 0 0 0 0 0 0 0 0 3 6 6 10 6 13 16 16 16 10 6 6 6 10 10 6 10 13 13 13 13 13 13 10 6 6 3 3 0 0 0 0 0 0 0 0 3
0 0 0 0 0 0 0 0 0 0 0 0 3 6 3 3 6 13 16 16 16 3 3 3 6 6 10 6 6 10 13 13 13 10 10 6 10 6 6 0 0 0 0 0 0 0 0 0 0
0 0 0 0 0 0 0 0 0 0 0 0 3 3 3 0 3 6 6 6 3 0 0 3 3 3 10 10 6 10 10 10 13 13 13 10 6 3 3 3 0 0 0 0 0 0 0 0 0
0 0 0 0 0 0 0 0 0 0 0 0 0 3 3 3 0 0 6 6 3 0 0 0 3 3 6 10 10 10 10 10 10 10 6 10 6 3 3 6 0 0 0 0 0 0 0 0 0
0 0 0 0 0 0 0 0 0 0 0 0 0 0 3 3 0 0 3 3 3 0 0 0 0 6 6 6 10 6 10 6 6 6 6 6 3 6 6 6 0 0 0 0 0 0 0 0 0

GEFSSGP_con_cape1000_330.txt.gz
Probability
48 42 58 84 71 45 6 6 3 6 0 0 0 0 10 13 16 16 23 19 19 23 29 35 48 48 45 42 42 45 39 39 39 39 35 35 32 42 48 45 42 42 45 48 58 65 65 58 45
42 45 55 77 39 6 0 6 3 3 0 0 3 0 3 13 13 13 19 19 16 19 32 32 48 42 42 45 48 45 42 35 39 35 35 32 35 39 42 45 35 35 35 42 52 55 52 35 35
39 23 35 55 6 0 0 6 3 0 0 3 0 0 3 10 13 19 23 19 19 19 23 35 45 42 42 39 42 42 39 39 39 39 39 35 35 39 42 35 45 42 42 35 39 35 39 35 35
29 35 29 16 0 0 6 10 3 0 0 3 0 3 10 10 13 26 19 16 19 16 16 32 45 39 39 42 42 39 39 39 39 39 39 35 35 35 35 29 32 39 39 35 39 39 32 35 35
39 39 13 0 0 0 0 3 3 3 0 0 0 6 13 16 19 19 19 16 16 13 19 26 42 35 39 35 42 39 42 32 35 39 35 35 32 29 29 32 32 29 32 35 39 45 39 29 35
35 26 0 0 0 0 0 0 0 3 0 0 0 6 13 10 19 19 19 23 23 13 19 26 42 48 45 42 35 32 23 32 29 26 26 29 26 23 23 23 26 29 32 35 39 39 29 26 26
39 16 0 0 0 3 0 0 0 3 0 0 0 6 13 16 23 19 23 23 23 26 23 13 23 35 42 45 35 29 23 23 23 23 26 29 26 26 19 19 19 23 26 32 26 29 26 19 10
39 16 0 0 3 0 0 0 3 3 0 0 0 6 13 16 16 19 19 23 19 26 26 16 16 16 23 35 35 35 32 26 26 23 23 26 26 16 23 23 23 16 16 19 26 19 19 16 16
3 0 0 0 0 0 0 0 0 0 0 0 3 3 16 19 16 19 16 19 23 19 26 23 19 19 26 19 26 29 23 23 23 26 26 23 6 3 10 13 19 13 13 10 10 10 16 13 13
3 0 0 0 0 3 3 0 0 0 0 0 3 10 13 16 16 19 23 19 19 19 19 19 23 19 19 16 19 19 19 23 16 10 10 10 13 3 3 10 23 23 13 6 10 10 13 10 0
0 0 0 0 0 3 3 0 0 0 0 0 3 10 10 13 19 19 19 19 16 16 16 19 16 13 16 23 23 23 19 23 16 10 13 13 6 0 0 0 0 3 3 3 3 10 3 0 0
0 0 0 0 0 0 3 3 0 0 0 0 0 6 10 10 16 19 16 19 16 16 16 13 13 13 13 16 19 23 19 19 13 10 6 6 3 0 0 0 0 0 3 3 3 3 0 0 0
0 0 0 0 0 0 0 3 0 3 3 3 0 6 10 10 10 13 13 16 16 16 16 13 16 16 13 19 19 16 13 13 13 13 10 10 6 3 0 0 0 0 0 3 0 0 0 0 0
0 0 0 0 0 0 0 0 0 3 0 3 0 6 10 10 10 16 13 10 16 16 13 13 13 13 16 16 13 16 16 13 3 6 3 3 3 3 0 0 0 0 0 0 0 0 0 0 0
0 0 0 0 0 0 0 0 3 3 0 0 0 3 13 10 10 10 13 10 13 13 10 13 13 16 16 19 16 13 13 6 3 3 3 3 3 3 3 3 0 0 0 0 0 0 0 0 0
0 0 0 0 0 0 0 0 0 0 0 0 0 3 10 10 13 6 13 13 6 10 10 13 10 13 16 19 19 16 16 10 10 6 3 3 3 3 3 0 3 0 0 0 0 0 0 0 0
0 0 0 0 0 0 0 0 0 0 0 3 3 6 6 6 6 6 13 6 10 10 13 13 13 10 10 13 10 13 10 16 13 10 10 6 3 3 3 0 0 0 0 0 0 0 0 0 0
0 0 0 0 0 0 0 0 0 0 3 3 3 0 6 6 6 6 10 3 6 13 13 13 13 10 10 6 6 13 13 10 6 10 6 3 3 3 3 0 0 0 0 0 0 0 0 0 0
0 0 0 0 0 0 0 0 0 3 3 3 3 0 0 10 6 6 10 3 3 6 13 16 16 10 13 13 6 13 13 10 10 10 10 3 3 3 3 0 0 0 0 0 0 0 0 0 0
0 0 0 0 0 0 0 0 0 0 0 0 0 0 3 3 0 6 10 6 10 6 13 16 16 16 16 16 16 16 13 13 10 10 6 3 3 3 3 0 0 0 0 0 0 0 0 0 0
0 0 0 0 0 0 0 0 0 0 0 0 0 6 6 6 3 3 10 10 10 3 6 10 16 13 13 16 16 19 13 13 13 6 6 3 3 3 3 0 0 0 0 0 0 0 0 0 0
0 0 0 0 0 0 0 0 0 0 0 0 0 3 6 6 10 3 6 10 10 10 3 6 6 13 13 13 16 16 13 10 6 6 10 6 3 3 3 0 0 0 0 0 0 0 0 0 0
0 0 0 0 0 0 0 0 0 0 0 0 0 0 6 10 6 6 10 10 10 10 10 10 6 6 10 13 13 10 13 16 10 13 10 10 3 3 3 0 0 0 0 0 0 0 0 0 0
0 0 0 0 0 0 0 0 0 0 0 0 0 0 0 6 6 10 10 10 10 10 16 13 13 3 6 6 10 10 10 10 10 10 16 13 6 6 3 0 0 0 0 0 0 0 0 0 0
0 0 0 0 0 0 0 0 0 0 0 0 0 0 0 3 6 6 13 10 10 10 13 16 13 10 13 10 3 6 10 6 6 6 13 16 13 10 10 0 0 0 0 0 0 3 3 3 3
0 0 0 0 0 0 0 0 0 0 0 0 0 3 6 3 6 10 13 13 6 10 10 10 6 6 6 10 6 6 6 6 6 6 10 13 10 13 10 6 0 0 0 0 0 0 3 3 0
0 0 0 0 0 0 0 0 0 0 0 0 0 3 3 6 3 3 6 6 6 6 6 6 3 3 3 3 6 6 6 6 6 3 3 3 6 10 3 6 3 3 0 0 0 0 0 0 0
0 0 0 0 0 0 0 0 0 0 0 0 0 3 3 3 6 6 10 6 10 6 6 3 3 3 6 3 3 6 6 3 3 0 3 3 3 6 3 0 3 3 3 0 0 0 0 0 0
0 0 0 0 0 0 0 0 0 0 0 0 0 0 3 3 3 13 13 10 6 6 6 3 3 3 3 3 3 3 3 3 3 0 0 3 3 3 3 3 3 3 3 0 0 0 0 0 0
0 0 0 0 0 0 0 0 0 0 0 0 0 0 3 3 6 10 10 6 6 3 0 0 0 0 3 3 3 3 3 3 3 3 0 0 0 0 0 0 0 0 0 0 0 0 0 0 0

GEFSSGP_con_cape1000_336.txt.gz
Probability
48 29 23 0 0 0 0 0 0 0 0 0 3 6 3 6 0 0 3 10 13 16 29 42 52 48 52 58 61 52 48 45 45 48 45 45 45 58 65 58 55 58 58 61 58 61 52 52 58
26 23 13 0 0 0 0 0 0 0 0 0 3 3 3 10 10 3 10 13 23 23 35 39 48 52 52 61 55 55 52 45 45 45 45 45 42 45 48 48 52 52 58 58 61 55 55 52 45
29 23 3 0 0 0 0 0 0 0 0 0 3 3 6 6 10 3 10 13 23 23 29 39 48 48 48 55 48 48 45 39 42 45 42 42 39 39 48 45 48 48 48 42 45 48 45 45 39
13 3 0 3 0 0 0 0 0 0 0 3 3 10 3 3 10 10 10 10 16 23 29 35 48 48 45 52 52 48 39 39 39 39 42 39 42 42 45 45 42 45 48 45 42 39 39 32 29
6 0 0 0 0 0 0 0 0 0 0 3 0 6 6 6 6 10 10 16 19 19 26 29 48 45 45 52 55 48 32 29 35 26 32 35 39 39 42 42 35 29 32 32 42 35 32 29 29
0 0 0 0 0 0 0 0 0 0 3 3 3 6 6 3 6 6 10 13 16 19 26 35 45 48 42 45 35 39 32 29 32 29 29 26 32 29 29 29 19 19 26 26 32 32 26 29 32
0 0 0 0 0 0 0 0 0 0 3 3 0 0 3 6 10 10 10 13 16 19 23 29 39 35 39 39 35 42 39 29 29 32 32 23 32 29 26 16 16 16 16 19 16 19 26 32 42
0 0 0 0 0 0 0 0 0 0 0 3 0 0 3 6 10 13 10 10 13 13 13 23 23 26 29 29 35 32 32 26 29 26 29 32 32 26 23 19 23 13 19 16 19 19 23 29 29
0 0 0 0 0 0 0 0 0 0 3 3 6 3 3 6 10 10 10 10 13 13 13 16 16 19 19 16 29 29 29 29 26 23 26 16 6 6 10 16 23 16 10 13 13 16 19 16 23
0 0 0 0 0 0 0 0 0 3 3 3 6 16 10 13 10 10 10 10 10 10 13 16 13 13 10 10 10 16 19 16 10 10 10 0 0 3 6 13 26 16 16 16 16 16 13 6 3
0 0 0 0 0 0 0 0 0 0 0 3 6 6 16 10 6 10 10 10 10 10 10 10 13 13 10 3 10 10 6 6 3 0 0 0 0 0 0 3 0 3 6 3 6 6 6 0 0
0 0 0 0 0 0 0 0 0 0 0 3 0 6 6 6 6 6 6 10 10 6 6 6 10 10 10 13 10 3 3 3 0 0 0 0 0 0 0 0 0 0 0 3 3 0 0 0 0
0 0 0 0 0 0 0 0 0 0 3 3 3 6 10 6 10 3 3 10 10 6 6 6 6 6 6 6 6 3 3 3 0 0 0 0 0 0 0 0 0 0 0 0 0 0 0 0 0
0 0 0 0 0 0 0 0 0 0 3 3 3 3 3 0 3 3 3 10 10 6 6 6 6 6 6 6 3 3 0 0 0 0 0 0 0 0 0 0 0 0 0 0 0 0 0 0 0
0 0 0 0 0 0 0 0 3 3 3 3 3 3 3 3 3 3 6 6 10 10 10 10 6 6 6 6 3 3 0 0 0 0 0 0 0 0 0 0 0 0 0 0 0 0 0 0 0
0 0 0 0 0 0 0 0 0 3 3 3 3 3 3 3 3 3 6 3 3 10 10 10 10 6 6 6 0 0 0 0 0 0 0 0 0 0 0 0 0 0 0 0 0 0 0 0 0
0 0 0 0 0 0 0 0 0 3 0 0 3 3 3 3 3 3 6 3 3 6 10 6 6 6 6 0 0 0 0 0 0 0 0 0 0 0 0 0 0 0 0 0 0 0 0 0 0
0 0 0 0 0 0 0 0 0 0 0 0 0 3 3 0 3 3 6 6 3 3 6 6 6 6 6 0 0 0 0 0 0 0 0 0 0 0 0 0 0 0 0 0 0 0 0 0 0
0 0 0 0 0 0 0 0 0 0 0 0 0 0 0 0 0 3 3 6 3 3 3 3 6 6 0 0 0 0 0 0 0 0 0 0 0 0 0 0 0 0 0 0 0 0 0 0 0
0 0 0 0 0 0 0 0 0 0 0 0 0 0 0 0 0 3 3 0 3 3 3 3 3 3 0 0 0 0 0 0 0 0 0 0 0 0 0 0 0 0 0 0 0 0 0 0 0
0 0 0 0 0 0 0 0 0 0 0 0 0 0 0 0 0 3 3 3 0 0 0 6 6 6 0 0 0 0 0 0 0 0 0 0 0 0 0 0 0 0 0 0 0 0 0 0 0
0 0 0 0 0 0 0 0 0 0 0 0 0 0 0 0 0 0 3 3 0 0 0 3 6 0 0 0 0 0 0 0 0 0 0 0 0 0 0 0 0 0 0 0 0 0 0 0 0
0 0 0 0 0 0 0 0 0 0 0 0 0 0 0 0 0 0 3 3 0 3 3 0 0 0 0 0 0 0 0 0 0 0 0 0 0 0 0 0 0 0 0 0 0 0 0 0 0
0 0 0 0 0 0 0 0 0 0 0 0 0 0 0 3 0 0 0 3 3 3 3 3 0 0 0 0 0 0 0 0 0 0 0 0 0 0 0 0 0 0 0 0 0 0 0 0 0
0 0 0 0 0 0 0 0 0 0 0 0 0 0 0 0 3 3 3 3 0 0 3 3 3 0 0 0 0 0 0 0 0 0 0 0 0 0 0 0 0 0 0 0 0 0 0 0 0
0 0 0 0 0 0 0 0 0 0 0 0 0 0 0 0 0 0 0 0 0 0 3 3 3 3 3 3 3 0 0 0 0 0 0 0 0 0 0 0 0 0 0 0 0 0 0 0 0
0 0 0 0 0 0 0 0 0 0 0 0 0 0 0 0 0 0 0 0 0 0 0 3 3 3 3 3 3 3 0 0 0 0 0 0 0 0 0 0 0 0 0 0 0 0 0 0 0
0 0 0 0 0 0 0 0 0 0 0 0 0 0 0 0 0 0 0 0 3 0 0 0 0 3 3 3 3 3 3 3 0 0 0 0 0 0 0 0 0 0 0 0 0 0 0 0 0
0 0 0 0 0 0 0 0 0 0 0 0 0 0 0 0 0 0 0 0 3 3 0 0 0 0 0 3 3 3 3 3 0 0 0 0 0 0 0 0 0 0 0 0 0 0 0 0 0
0 0 0 0 0 0 0 0 0 0 0 0 0 0 0 0 0 0 3 3 3 3 3 3 0 3 3 0 3 3 3 3 0 0 0 0 0 0 0 0 0 0 0 0 0 0 0 0 0

GEFSSGP_con_cape1000_342.txt.gz
Probability
39 23 0 0 0 0 0 0 0 0 0 0 0 0 0 0 0 0 0 3 3 13 26 35 32 42 48 52 58 52 48 45 48 48 61 61 71 68 68 71 68 65 65 61 65 65 61 58 58
29 13 0 0 0 0 0 0 0 0 0 0 0 0 0 3 3 3 6 6 13 23 26 26 35 39 55 58 55 52 48 48 42 48 52 61 61 61 61 65 61 61 61 58 65 68 58 52 48
23 0 0 0 0 0 0 0 0 0 0 0 0 0 3 3 3 3 6 16 13 16 19 29 39 42 52 55 45 45 52 45 35 45 55 42 45 52 55 55 61 58 48 58 65 58 45 42 39
3 0 0 0 0 0 0 0 0 0 3 0 0 0 3 3 3 3 10 16 10 23 23 32 39 39 42 42 39 39 42 39 35 42 45 42 42 55 52 48 45 48 42 42 48 45 42 32 35
0 0 0 0 0 0 0 0 0 0 3 0 0 0 3 3 6 10 13 10 10 23 26 29 42 35 35 39 35 35 39 35 35 42 39 35 35 35 32 45 48 42 35 29 32 42 29 29 29
0 0 0 0 0 0 0 0 0 3 0 0 0 0 3 6 10 10 16 13 13 26 29 29 45 39 39 39 39 35 39 39 39 35 35 32 35 29 29 29 32 32 26 19 32 35 29 26 32
0 0 0 0 0 0 0 0 0 0 3 0 0 0 3 6 10 10 16 16 19 23 26 26 35 35 35 35 29 35 32 39 39 39 35 35 39 35 29 32 35 29 26 29 32 35 26 23 26
0 0 0 0 0 0 0 0 0 3 0 0 0 0 3 6 10 10 10 10 10 13 16 19 23 23 26 29 29 35 35 35 32 39 32 26 26 23 16 16 26 26 26 29 26 32 23 26 23
0 0 0 0 0 0 0 0 0 3 0 0 3 3 3 6 10 10 10 10 10 13 10 13 13 16 19 19 29 26 29 29 26 23 23 10 3 3 6 10 23 16 19 16 16 26 19 16 13
0 0 0 0 0 0 0 0 0 3 3 3 3 3 6 6 10 10 10 10 10 10 10 13 13 13 13 13 13 13 10 3 6 6 3 0 0 3 3 3 13 10 6 10 16 16 13 10 0
0 0 0 0 0 0 0 0 0 0 3 3 3 0 6 10 10 10 10 10 10 6 10 13 10 10 6 6 6 6 3 3 0 0 0 0 0 0 0 0 0 0 0 0 0 3 3 0 0
0 0 0 0 0 0 0 0 0 0 0 3 3 3 6 6 6 10 10 10 6 6 6 6 10 10 6 3 3 3 0 0 0 0 0 0 0 0 0 0 0 0 0 0 0 0 0 0 0
0 0 0 0 0 0 0 0 0 0 0 3 3 0 6 6 3 3 6 10 6 6 6 10 10 10 0 3 3 3 0 0 0 0 0 0 0 0 0 0 0 0 0 0 0 0 0 0 0
0 0 0 0 0 0 0 0 0 3 3 3 3 3 0 0 0 0 0 6 10 6 6 6 6 6 0 3 3 0 0 0 0 0 0 0 0 0 0 0 0 0 0 0 3 0 0 0 0
0 0 0 0 0 0 0 0 0 3 3 3 3 3 3 0 0 0 0 3 10 10 6 6 6 3 3 3 0 0 0 0 0 0 0 0 0 0 0 0 0 0 0 0 0 0 0 0 0
0 0 0 0 0 0 0 0 0 0 0 0 3 3 3 3 0 0 0 0 0 0 3 6 6 6 3 3 0 0 0 0 0 0 0 0 0 0 0 0 0 0 0 0 0 0 0 0 0
0 0 0 0 0 0 0 0 0 0 0 0 0 3 3 3 3 3 0 0 3 0 0 3 6 6 6 3 0 0 0 0 0 0 0 0 0 0 0 0 0 0 0 0 0 0 0 0 0
0 0 0 0 0 0 0 0 0 0 0 0 0 3 3 3 3 3 3 3 6 3 0 3 6 6 6 3 0 0 0 0 0 0 0 0 0 0 0 0 0 0 0 0 0 0 0 0 0
0 0 0 0 0 0 0 0 0 0 0 0 0 0 3 0 3 3 3 3 3 3 6 3 6 3 6 3 0 0 0 0 0 0 0 0 0 0 0 0 0 0 0 0 0 0 0 0 0
0 0 0 0 0 0 0 0 0 0 0 0 0 0 0 3 3 3 3 3 0 3 3 0 0 0 0 0 0 0 0 0 0 0 0 0 0 0 0 0 0 0 0 0 0 0 0 0 0
0 0 0 0 0 0 0 0 0 0 0 0 0 0 3 3 0 0 3 3 0 0 3 0 0 0 0 0 0 0 0 0 0 0 0 0 0 0 0 0 0 0 0 0 0 0 0 0 0
0 0 0 0 0 0 0 0 0 0 0 0 0 0 0 0 0 0 0 3 3 0 0 0 0 0 0 0 0 0 0 0 0 0 0 0 0 0 0 0 0 0 0 0 0 0 0 0 0
0 0 0 0 0 0 0 0 0 0 0 0 0 0 0 0 0 0 0 3 3 0 0 0 0 0 0 0 0 0 0 0 0 0 0 0 0 0 0 0 0 0 0 0 0 0 0 0 0
0 0 0 0 0 0 0 0 0 0 0 0 0 0 0 0 0 0 0 0 0 0 0 0 0 0 0 0 0 0 0 0 0 0 0 0 0 0 0 0 0 0 0 0 0 0 0 0 0
0 0 0 0 0 0 0 0 0 0 0 0 0 0 0 0 0 0 0 0 3 0 3 0 0 0 0 0 0 0 0 0 0 0 0 0 0 0 0 0 0 0 0 0 0 0 0 0 0
0 0 0 0 0 0 0 0 0 0 0 0 0 0 0 0 0 0 0 0 0 3 3 3 0 0 0 0 0 0 0 0 0 0 0 0 0 0 0 0 0 0 0 0 0 0 0 0 0
0 0 0 0 0 0 0 0 0 0 0 0 0 0 0 0 0 0 0 0 0 0 3 3 3 0 0 0 0 0 0 0 0 0 0 0 0 0 0 0 0 0 0 0 0 0 0 0 0
0 0 0 0 0 0 0 0 0 0 0 0 0 0 0 0 0 0 0 0 0 0 0 0 3 0 0 0 0 0 0 0 0 0 0 0 0 0 0 0 0 0 0 0 0 0 0 0 0
0 0 0 0 0 0 0 0 0 0 0 0 0 0 0 0 0 0 0 0 0 0 0 0 0 0 0 0 0 0 0 0 0 0 0 0 0 0 0 0 0 0 0 0 0 0 0 0 0
0 0 0 0 0 0 0 0 0 0 0 0 0 0 0 0 0 0 0 0 0 0 0 0 0 0 0 0 0 0 0 0 0 0 0 0 0 0 0 0 0 0 0 0 0 0 0 0 0

GEFSSGP_con_cape1000_348.txt.gz
Probability
32 26 19 19 6 0 0 0 0 3 0 0 0 0 0 0 3 6 16 10 10 13 16 19 29 48 42 52 48 52 48 52 55 65 58 65 65 68 65 65 61 65 65 65 61 65 68 68 52
26 19 6 6 0 0 0 0 0 0 0 0 0 0 0 3 3 6 16 13 10 16 16 19 39 35 39 48 52 48 45 48 52 55 55 58 58 58 55 58 61 65 55 52 58 61 55 58 52
23 13 3 0 0 0 0 0 0 0 0 0 0 3 0 3 6 10 19 19 16 16 16 26 35 29 39 45 52 48 42 42 45 48 45 52 52 45 45 45 55 48 45 35 42 48 48 42 39
13 3 3 0 0 0 0 0 0 0 0 0 0 3 3 6 10 19 26 19 13 16 23 29 35 35 35 45 48 39 32 32 42 39 45 45 42 42 45 48 52 52 42 39 42 45 45 42 42
0 0 0 0 0 0 0 0 3 3 3 0 0 3 3 13 16 23 19 13 16 16 23 26 35 32 35 35 35 35 32 29 29 39 39 35 39 39 39 45 48 39 39 23 29 39 35 35 32
0 0 0 0 0 0 0 0 3 3 3 0 3 3 6 16 16 13 16 13 16 19 23 32 32 29 26 29 32 23 26 29 29 29 26 32 29 35 32 32 39 32 32 23 19 26 26 32 32
0 0 0 0 0 0 0 0 3 3 3 3 0 3 6 19 19 16 10 13 16 16 16 23 26 26 26 32 29 26 26 26 23 26 29 26 23 35 26 39 26 19 16 16 23 29 26 23 23
0 0 0 0 0 0 0 0 3 0 3 3 3 3 3 19 19 19 16 16 16 16 16 16 13 16 19 29 32 29 32 26 29 29 26 23 26 26 19 19 23 23 16 19 19 13 23 16 19
0 0 0 0 0 0 0 0 6 6 6 3 0 3 3 16 16 19 19 19 16 16 16 13 13 13 19 16 16 26 23 23 19 16 13 19 10 3 13 10 19 16 13 6 6 10 13 13 13
0 0 0 0 0 0 0 0 0 6 6 3 0 3 19 16 13 13 16 19 16 16 16 13 13 16 16 16 19 16 13 13 13 6 10 13 6 3 0 6 10 10 6 6 10 10 10 10 6
0 0 0 0 0 0 0 0 0 0 3 3 3 10 19 16 13 13 10 13 10 16 16 13 16 16 16 16 16 16 13 13 3 10 10 10 3 0 0 3 6 6 3 0 3 3 3 3 3
0 0 0 0 0 0 0 0 0 0 3 3 3 16 19 16 13 6 10 10 10 13 16 16 16 16 16 16 13 13 10 10 6 6 6 3 10 3 0 3 3 6 3 3 3 6 3 3 3
0 0 0 0 0 0 0 0 0 3 3 6 6 16 19 13 13 6 3 10 6 10 19 16 13 16 16 16 13 6 0 3 3 6 6 3 3 6 6 3 6 0 0 3 6 6 3 3 3
0 0 0 0 0 0 0 0 0 0 3 3 10 13 13 10 10 6 6 3 6 10 10 19 16 13 16 13 10 10 6 3 3 3 3 0 0 0 3 3 3 0 0 0 3 3 3 3 3
0 0 0 0 0 0 0 0 0 3 6 10 10 13 13 6 10 10 6 3 3 10 6 10 10 10 10 10 10 10 6 3 3 3 0 0 0 0 3 3 0 0 0 0 3 3 3 3 3
0 0 0 0 0 0 0 0 0 3 6 10 10 3 6 3 3 6 6 3 6 3 3 3 3 10 10 13 10 10 6 6 6 0 0 0 0 0 0 0 0 0 0 0 3 3 3 3 3
0 0 0 0 0 0 0 0 0 3 3 3 10 3 6 6 3 3 10 6 3 0 3 10 10 6 6 10 10 6 3 6 3 3 6 0 0 0 0 0 0 0 0 0 0 0 3 3 3
0 0 0 0 0 0 0 0 0 3 3 3 3 10 3 3 6 6 10 3 0 0 3 10 3 6 6 13 6 3 3 10 6 6 3 3 0 0 0 3 0 0 0 0 0 0 3 3 3
0 0 0 0 0 0 0 0 0 3 3 3 6 6 3 6 6 6 6 6 0 10 10 3 3 3 3 6 6 13 13 13 10 6 3 3 0 0 0 0 0 0 0 0 0 0 0 0 0
0 0 0 0 0 0 0 0 0 0 3 3 3 10 6 6 3 6 6 10 13 10 6 6 6 6 3 3 6 10 10 3 3 6 3 0 0 0 0 0 0 0 0 0 0 0 0 0 0
0 0 0 0 0 0 0 0 0 0 0 0 3 13 6 3 3 10 10 10 13 13 13 6 10 6 10 10 10 6 3 3 3 6 6 0 0 0 0 0 0 0 0 0 0 0 0 0 0
0 0 0 0 0 0 0 0 0 0 0 0 0 0 6 10 3 6 6 6 10 10 10 6 10 6 6 13 13 10 13 0 3 3 3 0 0 0 0 0 0 0 0 0 0 0 0 0 0
0 0 0 0 0 0 0 0 0 0 0 0 0 0 0 6 10 10 10 6 13 13 10 3 3 6 6 6 10 13 6 6 6 6 3 0 0 0 0 0 3 0 0 0 0 0 0 0 0
0 0 0 0 0 0 0 0 0 0 0 0 0 0 0 0 3 6 10 6 6 10 13 6 3 6 13 10 10 16 10 10 6 6 6 3 0 0 0 0 3 3 3 0 0 0 0 0 0
0 0 0 0 0 0 0 0 0 0 0 0 0 0 0 0 0 6 10 10 10 13 6 6 6 13 13 10 10 6 6 6 6 6 10 6 3 3 3 0 3 3 3 0 0 0 0 0 0
0 0 0 0 0 0 0 0 0 0 0 0 0 0 0 0 3 3 6 13 13 13 13 10 10 10 13 13 10 6 3 10 6 6 3 3 3 3 0 0 3 3 3 0 0 0 0 0 0
0 0 0 0 0 0 0 0 0 0 0 0 0 0 0 0 6 6 3 10 13 13 16 6 10 6 10 10 6 3 3 10 3 3 3 3 3 3 3 3 0 0 0 0 0 0 0 0 0
0 0 0 0 0 0 0 0 0 0 0 0 0 0 0 0 3 3 6 6 10 13 16 10 3 0 3 3 0 0 3 6 6 6 3 3 3 3 3 3 3 3 3 0 0 0 0 0 0
0 0 0 0 0 0 0 0 0 0 0 0 0 0 0 3 0 6 10 6 10 10 13 10 10 3 6 3 3 0 0 3 6 6 6 6 3 3 3 3 3 3 3 3 0 0 3 3 3
0 0 0 0 0 0 0 0 0 0 0 0 0 0 0 3 0 3 6 10 6 6 6 10 10 10 10 6 6 3 6 3 3 3 3 3 0 0 3 3 3 3 3 3 3 0 3 0 3

GEFSSGP_con_cape1000_354.txt.gz
Probability
42 39 45 71 61 32 3 3 3 0 0 0 0 0 3 13 16 10 13 23 23 23 26 39 42 48 55 58 65 58 58 58 65 65 58 61 61 58 61 61 48 58 55 48 48 45 48 45 52
32 39 42 58 35 3 0 3 3 3 0 0 0 0 3 3 6 10 16 29 19 19 23 26 35 42 55 65 65 61 52 58 65 52 48 52 48 52 52 48 42 58 55 52 45 42 48 42 42
35 26 35 45 10 3 0 3 0 0 0 0 0 6 10 3 6 13 10 19 19 23 23 26 42 39 48 42 52 48 45 48 45 42 42 42 45 55 45 52 45 45 42 42 45 42 42 42 39
35 42 26 10 3 3 0 0 0 0 0 0 0 6 3 13 13 16 10 10 19 23 19 29 39 39 35 35 35 32 39 39 42 39 39 45 45 48 39 32 35 35 29 35 42 39 29 26 29
29 19 10 3 3 6 3 0 0 0 0 0 3 3 10 19 16 19 16 13 26 23 19 29 35 29 35 29 26 19 26 32 32 32 29 29 32 32 32 32 29 26 35 26 29 29 26 29 23
35 10 0 3 3 0 0 0 0 0 0 0 6 6 10 16 13 19 10 10 23 26 19 29 42 35 39 32 26 19 23 29 26 32 29 32 29 29 32 26 26 29 32 23 19 13 16 16 23
10 6 3 3 6 3 0 0 0 0 0 0 6 6 10 13 13 10 10 10 19 23 19 23 23 23 35 29 26 19 19 29 32 29 32 29 26 29 26 26 32 26 23 16 16 13 13 23 16
13 6 3 3 3 3 0 0 0 3 3 0 3 3 13 16 10 6 10 13 13 19 19 23 16 19 19 19 23 26 26 32 32 29 26 23 19 19 19 16 23 10 10 13 13 10 10 16 13
0 3 3 3 6 3 0 0 0 3 0 0 3 6 16 19 13 13 16 13 13 13 13 13 13 19 13 10 10 16 19 19 16 13 26 16 10 3 10 10 13 6 6 6 6 10 10 6 13
0 3 3 0 3 3 0 0 0 0 3 0 3 10 16 16 10 13 16 16 16 10 10 6 13 13 10 6 10 6 6 6 6 6 6 6 6 3 0 13 10 6 3 3 6 13 13 3 0
0 0 0 0 0 0 0 0 0 0 0 0 10 13 10 10 10 6 10 13 13 10 10 10 13 13 10 6 3 3 6 10 10 6 3 0 0 0 0 0 3 3 0 0 0 0 0 0 0
0 0 0 0 0 0 0 0 0 0 0 0 10 13 10 6 10 6 10 10 10 10 10 10 13 10 10 10 6 6 3 3 0 6 3 0 0 0 0 0 0 0 0 0 0 0 0 0 0
0 0 0 0 0 0 0 0 0 0 0 3 10 10 10 10 10 10 6 10 10 6 6 10 10 13 13 13 6 3 3 0 0 3 3 0 0 0 0 0 0 0 0 0 0 3 3 0 0
0 0 0 0 0 0 0 0 0 3 0 6 10 10 10 10 10 10 10 10 10 10 6 6 10 13 13 13 6 3 3 0 0 0 0 0 0 0 0 0 0 0 0 0 0 0 3 3 0
0 0 0 0 0 0 0 0 0 0 0 6 10 10 6 10 10 10 6 10 13 10 10 6 10 13 13 10 6 3 3 3 0 0 0 0 0 0 0 0 0 0 0 0 0 0 0 0 0
0 0 0 0 0 0 0 0 3 0 0 6 10 3 10 6 3 10 6 10 10 10 10 0 3 10 10 6 10 6 3 3 0 0 0 0 0 0 0 0 0 0 0 0 0 0 0 0 0
0 0 0 0 0 0 0 0 3 0 0 0 6 3 3 3 3 3 10 10 10 6 3 0 3 6 10 6 10 6 3 3 3 3 3 0 0 0 0 0 0 0 0 0 0 0 0 0 0
0 0 0 0 0 0 0 0 3 0 0 0 0 3 3 3 3 6 6 10 10 10 0 3 3 3 3 6 10 6 3 6 3 3 3 3 0 0 0 0 0 0 0 0 0 0 0 0 0
0 0 0 0 0 0 0 0 0 0 0 0 0 3 0 3 3 6 6 10 10 10 6 6 3 0 0 3 3 6 10 0 0 3 3 3 3 0 0 0 0 0 0 0 0 0 0 0 0
0 0 0 0 0 0 0 0 0 0 0 0 0 0 0 0 3 6 6 6 10 10 3 6 3 3 0 0 3 3 10 6 6 3 3 3 3 3 0 0 0 0 0 0 0 0 0 0 0
0 0 0 0 0 0 0 0 0 0 0 0 0 0 0 0 0 6 3 3 10 6 6 6 6 0 6 6 6 6 10 6 3 3 6 0 3 0 0 0 0 0 0 0 0 0 0 0 0
0 0 0 0 0 0 0 0 0 0 0 0 0 0 0 0 0 0 3 6 6 10 10 10 6 6 3 3 6 6 3 3 0 0 3 0 0 0 0 0 0 0 0 0 0 0 0 0 0
0 0 0 0 0 0 0 0 0 0 0 0 0 0 0 3 3 3 0 10 6 10 10 6 13 6 6 3 10 3 3 3 3 3 0 0 0 0 0 0 3 0 0 0 0 0 0 0 0
0 0 0 0 0 0 0 0 0 0 0 0 0 0 0 0 0 3 3 10 13 16 13 6 6 6 6 3 6 6 3 6 3 0 0 0 0 0 0 3 3 3 3 0 0 0 0 0 0
0 0 0 0 0 0 0 0 0 0 0 0 0 0 0 0 0 3 3 13 16 19 16 10 6 13 10 6 3 3 3 6 6 6 6 0 3 0 0 3 3 3 3 3 0 0 0 0 0
0 0 0 0 0 0 0 0 0 0 0 0 0 0 0 0 0 3 3 16 10 13 13 16 10 13 10 6 3 3 6 6 3 3 6 3 0 0 0 3 3 3 3 3 3 0 0 0 0
0 0 0 0 0 0 0 0 0 0 0 0 0 0 0 0 0 3 6 13 16 13 10 16 10 10 3 3 3 3 6 6 6 3 3 0 0 0 0 0 3 3 3 3 3 0 0 0 0
0 0 0 0 0 0 0 0 0 0 0 0 0 0 0 0 3 3 6 10 10 13 13 13 13 6 6 0 0 3 3 6 3 3 3 3 3 3 3 0 0 0 3 3 3 0 0 0 0
0 0 0 0 0 0 0 0 0 0 0 0 0 0 0 0 3 3 3 6 6 10 16 10 10 10 6 0 0 0 0 0 3 3 3 3 3 3 3 3 3 0 3 0 3 0 0 0 0
0 0 0 0 0 0 0 0 0 0 0 0 0 0 0 0 3 3 3 6 6 6 6 10 10 6 3 3 3 0 0 0 0 0 0 0 0 3 3 3 3 3 3 0 0 0 0 0 0

GEFSSGP_con_cape1000_360.txt.gz
Probability
35 35 23 3 0 0 0 0 0 0 0 0 3 3 3 3 0 0 3 10 10 13 35 35 61 58 61 71 68 68 71 68 68 68 65 65 61 61 68 68 68 61 55 55 48 45 42 42 39
16 23 13 0 0 0 0 0 0 0 0 0 3 3 3 6 3 6 6 13 6 13 23 32 58 58 55 58 55 58 61 65 55 55 52 45 48 55 52 58 58 55 48 48 45 48 52 45 45
16 23 6 0 0 0 0 0 0 0 0 0 3 3 3 6 6 6 3 10 6 16 32 48 58 48 55 45 48 52 48 48 52 48 52 48 48 48 48 48 45 52 42 39 42 42 35 42 42
6 6 0 0 0 0 0 0 0 0 0 6 3 3 6 3 6 6 6 6 13 23 29 39 52 42 45 39 48 39 42 42 45 35 35 35 35 45 48 45 39 39 29 32 35 39 29 32 48
0 0 0 0 0 0 0 0 0 0 0 6 6 3 6 3 6 6 6 13 13 16 26 29 42 35 32 35 35 32 32 29 39 35 32 29 29 32 35 32 29 23 23 29 26 23 19 23 26
0 0 0 0 0 0 0 0 0 0 0 10 10 6 6 3 6 6 6 10 13 16 23 32 42 35 35 29 23 26 26 29 29 32 26 23 26 29 29 29 23 23 23 23 23 23 19 23 29
0 0 0 0 0 0 0 0 0 0 0 6 6 0 3 3 10 3 6 13 13 13 13 23 26 23 42 29 19 26 23 19 23 19 23 23 23 26 26 26 26 23 23 19 16 16 16 19 26
0 0 0 0 0 0 0 0 0 0 0 3 0 0 3 3 3 0 6 6 13 13 10 10 10 10 10 13 29 26 26 19 26 23 19 19 19 16 26 19 26 26 19 16 13 16 10 10 6
0 0 0 0 0 0 0 0 0 3 0 3 0 0 3 3 3 0 3 3 6 10 10 10 10 10 10 10 13 19 23 23 10 13 13 6 3 3 6 13 23 16 16 13 13 13 6 10 6
0 0 0 0 0 0 0 0 0 0 3 3 3 3 3 3 6 0 3 3 3 3 6 10 10 10 6 10 10 6 6 6 3 3 3 3 3 3 0 6 13 13 10 6 10 6 3 0 0
0 0 0 0 0 0 0 0 0 0 0 0 0 3 3 6 6 3 3 3 3 3 6 6 10 6 6 6 3 3 0 0 3 3 3 0 0 0 0 0 3 6 6 0 0 0 0 0 0
0 0 0 0 0 0 0 0 0 0 0 0 0 6 3 6 6 0 0 3 3 3 3 3 3 6 6 3 3 3 0 0 0 0 0 0 0 0 0 0 0 0 0 0 0 0 0 0 0
0 0 0 0 0 0 0 0 0 3 3 3 0 3 3 6 6 0 3 6 3 3 3 3 3 3 3 3 3 3 0 0 0 0 0 0 0 0 0 0 0 0 0 0 0 0 0 0 0
0 0 0 0 0 0 0 0 0 0 3 3 0 0 0 3 3 6 10 6 3 3 3 3 3 3 3 3 3 0 0 0 0 0 0 0 0 0 0 0 0 0 0 0 0 0 0 0 0
0 0 0 0 0 0 0 0 0 0 0 0 3 3 0 0 3 6 10 10 3 3 3 3 3 3 3 0 0 0 0 0 0 0 0 0 0 0 0 0 0 0 0 0 0 0 0 0 0
0 0 0 0 0 0 0 0 0 0 0 3 3 3 0 0 0 6 10 10 6 6 3 3 3 3 3 0 0 0 0 0 0 0 0 0 0 0 0 0 0 0 0 0 0 0 0 0 0
0 0 0 0 0 0 0 0 0 0 3 3 3 3 0 0 0 3 3 6 6 6 6 3 0 0 0 0 0 0 0 0 0 0 0 0 0 0 0 0 0 0 0 0 0 0 0 0 0
0 0 0 0 0 0 0 0 0 0 0 0 3 3 0 3 0 0 3 6 6 6 6 6 3 0 0 0 0 0 0 0 0 0 0 0 0 0 0 0 0 0 0 0 0 0 0 0 0
0 0 0 0 0 0 0 0 0 0 0 0 0 0 3 3 3 0 3 3 3 3 3 0 3 0 0 0 3 0 0 0 0 0 0 0 0 0 0 0 0 0 0 0 0 0 0 0 0
0 0 0 0 0 0 0 0 0 0 0 0 0 0 0 0 0 0 0 3 3 3 3 0 0 0 0 0 0 0 0 0 0 0 0 0 0 0 0 0 0 0 0 0 0 0 0 0 0
0 0 0 0 0 0 0 0 0 0 0 0 0 0 0 0 0 0 0 0 3 3 3 3 0 0 0 0 0 0 0 0 0 0 0 0 0 0 0 0 0 0 0 0 0 0 0 0 0
0 0 0 0 0 0 0 0 0 0 0 0 0 0 0 0 0 0 0 0 3 3 3 3 0 0 0 0 0 0 0 0 0 0 0 0 0 0 0 0 0 0 0 0 0 0 0 0 0
0 0 0 0 0 0 0 0 0 0 0 0 0 0 0 0 0 0 0 0 3 3 3 3 0 0 0 0 0 0 0 0 0 0 0 0 0 0 0 0 0 0 0 0 0 0 0 0 0
0 0 0 0 0 0 0 0 0 0 0 0 0 0 0 0 0 0 0 0 0 3 3 0 0 0 0 0 0 0 0 0 0 0 0 0 0 0 0 0 0 0 0 0 0 0 0 0 0
0 0 0 0 0 0 0 0 0 0 0 0 0 0 0 0 0 0 0 0 0 3 3 0 0 0 0 0 0 0 0 0 0 0 0 0 0 0 0 0 0 0 0 0 0 0 0 0 0
0 0 0 0 0 0 0 0 0 0 0 0 0 0 0 0 0 0 0 0 0 3 3 0 0 0 0 0 0 0 0 0 0 0 0 0 0 0 0 0 0 0 0 0 0 0 0 0 0
0 0 0 0 0 0 0 0 0 0 0 0 0 0 0 0 0 0 0 0 0 3 3 3 0 0 0 0 0 0 0 0 0 0 0 0 0 0 0 0 0 0 0 0 0 0 0 0 0
0 0 0 0 0 0 0 0 0 0 0 0 0 0 0 0 0 0 0 0 3 3 3 0 0 0 0 0 0 0 0 0 0 0 0 0 0 0 0 0 0 0 0 0 0 0 0 0 0
0 0 0 0 0 0 0 0 0 0 0 0 0 0 0 0 0 0 0 3 3 3 3 0 0 0 0 0 0 0 0 0 0 0 0 0 0 0 0 0 0 3 3 3 0 0 0 0 0
0 0 0 0 0 0 0 0 0 0 0 0 0 0 0 0 0 0 0 0 3 3 3 0 0 0 0 0 0 0 0 0 0 0 0 0 0 0 0 0 0 3 3 3 3 0 0 0 0

GEFSSGP_con_cape1000_366.txt.gz
Probability
39 19 3 0 0 0 0 0 0 0 0 0 0 0 0 0 0 0 0 3 3 6 19 32 39 32 42 61 58 45 61 55 55 55 58 55 55 55 52 52 48 55 58 52 58 58 58 58 52
19 13 0 0 0 0 0 0 0 0 0 3 3 0 0 6 6 3 3 3 6 13 16 26 48 48 45 48 48 48 48 48 55 52 58 52 45 52 48 48 52 55 55 55 55 52 48 52 55
13 3 0 0 0 0 0 0 0 0 0 3 3 3 0 6 6 3 3 3 6 10 19 35 42 45 42 42 39 42 42 39 42 48 55 55 58 48 48 48 45 55 52 48 45 45 39 42 39
0 0 0 0 0 0 0 0 0 0 0 3 3 3 3 6 6 3 3 3 6 10 16 32 35 39 42 39 39 39 35 32 29 35 42 52 48 42 45 39 39 35 39 39 35 29 39 32 35
0 0 0 0 0 0 0 0 0 0 0 0 0 3 6 6 6 3 3 3 10 13 13 23 32 26 39 39 35 35 29 35 29 32 29 35 32 35 29 29 32 19 29 35 35 32 23 26 16
0 0 0 0 0 0 0 0 0 0 0 0 0 3 3 3 3 3 3 3 6 13 13 16 23 29 32 29 19 23 26 16 19 26 26 32 29 29 26 29 26 26 26 26 26 23 19 26 16
0 0 0 0 0 0 0 0 0 0 3 3 0 3 3 0 3 3 0 3 10 13 13 13 13 19 19 29 23 23 16 10 19 26 29 26 23 19 23 23 19 19 26 29 26 23 10 16 13
0 0 0 0 0 0 0 0 0 0 3 0 0 0 0 3 3 3 3 0 6 13 13 13 10 6 6 6 19 19 23 19 19 13 16 16 16 16 19 19 23 19 16 13 13 10 13 3 6
0 0 0 0 0 0 0 0 0 0 0 0 0 0 0 3 3 3 3 3 6 6 6 3 6 6 6 6 13 13 13 13 10 6 10 3 3 3 3 16 26 23 19 13 13 6 6 3 0
0 0 0 0 0 0 0 0 0 0 0 0 3 3 3 3 3 3 3 3 3 6 6 3 3 6 6 6 6 6 3 3 3 3 3 3 3 3 3 6 16 19 10 6 6 3 0 0 0
0 0 0 0 0 0 0 0 0 0 0 0 0 3 6 6 3 3 3 3 3 3 3 3 3 3 6 6 6 3 3 3 3 3 3 0 0 0 0 3 3 3 3 0 0 0 0 0 0
0 0 0 0 0 0 0 0 0 0 0 0 0 6 10 10 3 3 3 3 3 3 3 3 3 3 3 6 6 6 0 3 0 0 0 0 0 0 0 0 0 0 0 0 0 0 0 0 0
0 0 0 0 0 0 0 0 0 0 0 0 0 0 6 6 3 3 3 3 3 3 3 3 3 3 3 3 0 3 3 0 0 0 0 0 0 0 0 0 0 0 0 0 0 0 0 0 0
0 0 0 0 0 0 0 0 0 3 3 0 0 0 6 6 3 3 3 3 3 3 3 3 3 3 3 3 0 0 0 0 0 0 0 0 0 0 0 0 0 0 0 0 0 0 0 0 0
0 0 0 0 0 0 0 0 0 0 3 0 0 0 0 3 3 3 3 3 3 3 3 3 3 3 3 3 0 0 0 0 0 0 0 0 0 0 0 0 0 0 0 0 0 0 0 0 0
0 0 0 0 0 0 0 0 0 0 3 0 0 0 0 0 0 3 3 0 3 3 3 3 3 3 3 3 0 0 0 0 0 0 0 0 0 0 0 0 0 0 0 0 0 0 0 0 0
0 0 0 0 0 0 0 0 0 0 0 0 0 0 0 0 0 0 0 0 0 3 3 3 3 3 3 3 3 0 0 0 0 0 0 0 0 0 0 0 0 0 0 0 0 0 0 0 0
0 0 0 0 0 0 0 0 0 0 0 0 0 0 0 0 0 0 0 0 0 0 3 3 3 3 3 3 3 0 0 0 0 0 0 0 0 0 0 0 0 0 0 0 0 0 0 0 0
0 0 0 0 0 0 0 0 0 0 0 0 0 0 0 0 0 0 0 0 0 0 0 3 3 3 3 3 3 0 0 0 0 0 0 0 0 0 0 0 0 0 0 0 0 0 0 0 0
0 0 0 0 0 0 0 0 0 0 0 0 0 0 0 0 0 0 0 0 0 0 0 0 3 3 3 3 3 0 0 0 0 0 0 0 0 0 0 0 0 0 0 0 0 0 0 0 0
0 0 0 0 0 0 0 0 0 0 0 0 0 0 0 0 0 0 0 0 0 0 3 3 3 3 0 0 0 0 0 0 0 0 0 0 0 0 0 0 0 0 0 0 0 0 0 0 0
0 0 0 0 0 0 0 0 0 0 0 0 0 0 0 0 0 0 0 0 0 0 0 3 3 3 0 0 0 0 0 0 0 0 0 0 0 0 0 0 0 0 0 0 0 0 0 0 0
0 0 0 0 0 0 0 0 0 0 0 0 0 0 0 0 0 0 0 0 0 0 0 0 3 0 0 0 0 0 0 0 0 0 0 0 0 0 0 0 0 0 0 0 0 0 0 0 0
0 0 0 0 0 0 0 0 0 0 0 0 0 0 0 0 0 0 0 0 0 0 0 0 0 0 0 0 0 0 0 0 0 0 0 0 0 0 0 0 0 0 0 0 0 0 0 0 0
0 0 0 0 0 0 0 0 0 0 0 0 0 0 0 0 0 0 0 0 0 0 0 0 0 0 0 0 0 0 0 0 0 0 0 0 0 0 0 0 0 0 0 0 0 0 0 0 0
0 0 0 0 0 0 0 0 0 0 0 0 0 0 0 0 0 0 0 0 0 0 0 0 0 0 0 0 0 0 0 0 0 0 0 0 0 0 0 0 0 0 0 0 0 0 0 0 0
0 0 0 0 0 0 0 0 0 0 0 0 0 0 0 0 0 0 0 0 0 0 0 0 3 0 0 0 0 0 0 0 0 0 0 0 0 0 0 0 0 0 0 0 0 0 0 0 0
0 0 0 0 0 0 0 0 0 0 0 0 0 0 0 0 0 0 0 0 0 0 0 0 3 3 0 0 0 0 0 0 0 0 0 0 0 0 0 0 0 0 0 0 0 0 0 0 0
0 0 0 0 0 0 0 0 0 0 0 0 0 0 0 0 0 0 0 0 0 0 0 0 3 3 0 0 0 0 0 0 0 0 0 0 0 0 0 0 0 0 0 0 0 0 0 0 0
0 0 0 0 0 0 0 0 0 0 0 0 0 0 0 0 0 0 0 0 0 0 0 0 3 3 0 0 0 0 0 0 0 0 0 0 0 0 0 0 0 0 0 0 0 0 0 0 0

GEFSSGP_con_cape1000_372.txt.gz
Probability
39 26 13 6 16 3 0 0 0 0 0 0 0 0 0 0 6 6 13 3 3 6 10 16 26 45 48 45 48 58 52 42 58 52 55 52 45 45 45 45 42 42 42 52 48 48 48 48 45
26 19 6 3 0 0 0 0 0 0 0 0 0 0 3 10 10 10 13 10 6 6 13 19 29 39 55 48 42 52 48 42 39 42 45 42 39 42 42 45 42 42 45 45 52 48 45 42 45
16 6 3 3 0 0 0 0 0 0 0 0 0 0 6 10 3 6 13 6 10 10 19 26 39 45 39 39 35 35 35 39 39 42 42 32 35 35 42 42 39 45 42 42 42 42 39 35 39
6 3 3 3 0 0 0 3 3 3 0 0 0 3 10 10 10 6 6 10 10 10 13 19 32 32 42 35 29 32 35 32 29 35 29 32 32 39 39 42 39 42 35 35 29 32 39 32 29
3 3 3 0 0 0 0 0 3 3 3 0 0 0 10 13 10 6 10 10 10 10 13 13 26 29 35 29 26 29 32 26 32 32 26 29 32 26 32 35 29 32 32 32 29 26 29 23 19
3 3 3 0 0 0 3 3 3 3 3 0 0 0 10 13 13 6 10 6 10 13 16 19 23 29 29 29 29 32 35 35 39 32 29 23 23 23 23 26 23 19 23 23 26 19 16 16 13
3 3 3 0 0 0 3 3 3 6 6 3 0 3 10 10 10 6 6 3 6 6 10 16 23 19 26 23 32 32 35 35 23 23 16 19 23 23 16 19 19 19 19 19 19 16 13 6 3
3 0 0 0 0 0 3 3 6 6 0 3 0 3 10 10 6 10 10 10 10 10 13 13 13 13 16 23 29 35 29 26 16 16 19 16 19 19 16 16 16 19 16 10 13 13 10 3 3
3 0 0 0 0 0 3 6 6 3 6 6 0 3 10 6 3 13 16 13 10 10 10 10 13 13 13 13 13 19 19 13 13 16 16 10 6 6 6 6 16 13 10 6 10 0 6 3 3
0 0 0 0 0 0 3 6 6 3 3 0 3 6 6 6 6 6 3 10 13 10 13 13 10 10 6 13 16 13 6 10 10 6 6 3 3 3 0 3 10 6 6 6 6 0 0 0 3
0 0 0 0 0 0 3 3 3 0 0 0 3 3 6 10 6 10 10 6 10 6 16 13 13 6 6 13 10 10 10 6 10 6 3 6 6 3 0 6 10 3 3 3 3 0 0 0 0
0 0 0 0 0 0 0 3 3 0 0 0 3 3 10 10 10 10 13 10 10 6 13 16 10 10 10 10 10 10 6 6 6 6 3 3 3 3 3 3 3 3 6 6 3 3 0 0 0
0 0 0 0 3 3 3 3 0 3 3 3 3 10 10 6 10 10 10 10 10 10 13 10 13 13 6 3 6 3 10 6 6 6 3 3 3 3 3 3 3 3 3 0 0 0 0 0 0
0 0 0 0 0 0 3 0 0 0 0 3 10 13 16 6 13 19 13 10 6 6 10 13 10 13 10 3 6 6 3 10 10 10 3 3 6 3 3 3 3 3 0 0 0 0 0 0 0
0 0 0 0 0 0 0 0 0 3 3 3 13 13 16 10 13 19 16 10 6 6 10 13 13 10 6 6 6 6 6 10 10 6 6 3 3 3 3 3 3 3 0 0 0 0 0 0 0
0 0 0 0 0 0 0 0 0 0 3 0 10 13 16 10 10 13 6 6 13 16 13 13 10 10 10 6 6 6 6 6 6 3 10 6 3 3 3 3 3 0 0 0 0 0 0 0 0
0 0 0 0 0 0 0 0 3 6 0 3 6 10 10 10 10 13 10 6 10 16 16 13 10 10 10 6 6 6 6 6 6 6 10 3 3 3 6 3 3 0 0 0 0 0 0 0 0
0 0 0 0 0 0 0 0 0 6 3 3 0 3 3 3 3 6 16 13 10 13 16 16 13 13 10 13 6 6 6 10 3 3 6 3 3 3 3 3 3 3 0 3 0 0 0 0 0
0 0 0 0 0 0 0 0 0 3 3 3 0 3 0 3 3 3 6 13 13 10 10 13 13 16 19 16 13 16 13 6 6 3 6 3 3 3 3 0 3 3 0 0 0 3 0 0 0
0 0 0 0 0 0 0 0 0 0 3 3 0 3 0 3 0 0 3 6 6 13 10 10 16 16 13 16 6 10 10 10 10 10 6 3 3 3 3 3 3 3 3 0 0 0 0 3 0
0 0 0 0 0 0 0 0 0 0 0 3 3 3 3 3 0 0 0 3 3 6 10 6 10 13 13 16 16 19 16 13 3 10 13 3 3 3 3 0 3 3 0 0 0 0 0 3 3
0 0 0 0 0 0 0 0 0 0 0 0 3 3 3 3 3 3 0 3 3 6 6 10 10 10 13 13 16 13 10 6 6 6 6 6 3 0 0 0 0 0 0 0 0 0 0 0 3
0 0 0 0 0 0 0 0 0 0 0 0 0 3 6 6 3 6 0 6 6 3 10 10 10 10 10 16 13 16 10 6 6 6 6 6 0 0 3 3 0 0 0 0 0 0 0 0 0
0 0 0 0 0 0 0 0 0 0 0 0 0 0 6 6 6 6 3 10 10 6 3 10 10 6 10 13 13 6 6 10 10 10 10 6 3 3 0 0 3 3 6 0 0 0 0 0 0
0 0 0 0 0 0 0 0 0 0 0 0 0 0 0 6 6 6 6 6 10 6 6 3 6 6 10 13 10 6 10 10 10 13 10 6 3 3 0 0 0 6 6 0 0 0 0 0 0
0 0 0 0 0 0 0 0 0 0 0 0 0 0 0 0 3 10 10 6 3 3 6 6 3 6 6 6 6 6 10 6 10 10 10 6 10 3 0 0 0 3 3 3 3 3 0 0 0
0 0 0 0 0 0 0 0 0 0 0 0 0 0 0 0 6 6 6 3 0 3 3 3 6 3 3 10 6 6 6 6 6 6 6 3 3 0 0 0 0 0 3 3 3 3 3 3 3
0 0 0 0 0 0 0 0 0 0 0 0 0 0 0 0 3 3 3 3 0 0 3 3 3 3 6 6 10 6 6 6 6 6 6 6 6 0 0 3 0 0 0 3 3 3 3 3 3
0 0 0 0 0 0 0 0 0 0 0 0 0 0 0 0 3 3 3 3 0 0 0 3 3 3 3 6 6 3 3 6 6 6 6 6 3 3 3 3 0 0 0 0 3 3 3 3 3
0 0 0 0 0 0 0 0 0 0 0 0 0 0 0 0 3 3 3 3 0 0 0 3 3 3 3 0 6 6 10 6 3 3 6 6 3 3 3 3 3 0 0 0 0 3 3 3 3

GEFSSGP_con_cape1000_378.txt.gz
Probability
42 35 45 68 58 32 3 3 6 3 0 0 0 0 6 10 10 10 6 10 10 13 16 26 39 39 52 45 48 48 52 48 48 48 48 45 42 45 45 45 45 48 45 42 48 42 39 39 35
39 23 29 52 32 3 0 3 6 3 0 0 3 6 6 10 3 6 6 10 10 10 13 26 45 35 35 42 45 45 48 42 42 48 42 42 42 39 42 39 39 39 42 42 35 29 35 29 29
39 19 32 42 19 0 0 3 6 0 0 3 3 6 6 10 6 10 6 3 10 10 16 23 45 39 29 35 42 39 35 35 29 32 32 35 29 35 35 35 39 29 32 39 29 26 26 26 26
29 32 23 10 6 3 0 3 3 3 3 3 3 6 10 6 6 6 6 3 10 13 23 23 32 35 35 32 35 35 32 35 32 29 29 29 29 32 29 32 35 35 32 29 26 23 23 23 29
29 29 10 3 3 0 0 0 0 3 0 6 3 6 10 10 6 6 10 10 10 13 23 19 29 32 29 32 32 26 29 32 35 32 26 29 29 29 26 23 26 26 26 26 29 23 16 13 16
32 16 6 3 3 6 0 3 6 0 0 3 3 6 6 6 3 6 6 10 13 13 23 23 32 32 35 32 26 16 16 29 29 29 29 32 29 29 23 23 23 16 16 19 19 19 13 13 16
19 13 6 3 6 6 6 3 3 3 0 0 3 6 10 6 6 13 10 10 10 6 19 19 19 26 29 32 26 26 26 26 23 29 32 32 29 26 23 23 19 16 13 16 13 13 6 3 6
19 13 6 6 3 0 0 3 3 3 0 0 6 6 13 10 6 13 6 6 6 6 10 13 13 13 16 23 29 29 26 23 26 23 23 35 26 23 23 19 19 13 16 16 10 10 0 6 3
6 3 6 3 3 0 3 3 3 6 6 6 6 3 10 6 6 3 3 6 6 6 6 10 13 13 13 13 16 19 13 13 16 19 19 19 6 6 10 13 16 13 16 6 6 6 3 3 0
6 6 3 3 3 0 3 3 6 6 3 3 3 6 3 6 6 6 6 10 6 6 10 10 10 10 13 13 10 10 10 10 6 10 10 3 3 3 3 10 13 13 16 6 6 6 0 3 0
0 3 3 0 0 0 0 3 3 6 0 0 0 6 3 3 3 10 13 13 6 6 10 13 13 13 13 10 10 10 6 6 10 6 6 3 3 3 3 3 3 3 3 3 3 3 0 0 0
0 0 0 0 0 0 0 0 6 3 3 0 3 6 6 3 0 6 13 10 10 6 6 13 10 13 13 10 6 3 6 6 6 6 3 3 3 3 3 3 3 3 0 0 0 0 0 0 0
0 0 0 0 0 0 0 3 3 3 3 3 0 6 6 6 3 0 6 6 6 3 6 10 10 10 10 6 6 3 3 6 3 6 3 3 3 3 3 3 3 3 0 0 0 0 0 0 0
0 3 3 3 3 0 0 0 0 0 0 0 6 6 10 10 3 0 0 0 3 3 6 6 6 10 6 6 6 3 3 6 6 3 3 3 3 3 3 3 3 3 0 0 3 0 0 0 0
0 0 3 0 0 0 0 0 0 3 3 3 10 6 6 10 6 3 3 3 0 0 3 3 3 10 10 3 6 6 6 3 3 3 3 3 3 3 3 3 3 3 3 0 0 0 0 0 0
0 0 0 0 0 0 0 0 0 3 0 3 6 6 6 10 6 6 3 3 3 0 0 0 3 6 6 6 6 6 6 6 3 3 3 3 3 3 3 3 3 3 3 0 0 0 0 0 0
0 0 0 0 0 0 0 0 0 0 0 3 3 3 6 6 3 6 0 0 0 0 3 6 3 3 6 6 6 6 6 6 3 3 3 3 3 3 3 3 3 3 3 0 0 0 0 0 0
0 0 0 0 0 0 0 0 0 0 0 0 3 3 3 3 0 0 0 0 0 0 3 10 6 3 3 6 3 3 3 3 3 6 10 3 3 3 3 3 3 0 0 0 0 0 0 0 0
0 0 0 0 0 0 0 0 0 0 0 0 0 0 3 3 3 0 0 3 3 6 0 3 6 3 3 10 3 3 6 3 3 6 10 10 3 3 3 3 3 3 0 0 0 0 0 0 0
0 0 0 0 0 0 0 0 0 0 0 0 0 0 0 3 3 0 0 3 3 3 3 3 6 6 6 6 10 6 6 6 10 6 6 6 3 3 3 3 0 3 3 0 0 0 0 0 0
0 0 0 0 0 0 0 0 0 0 0 0 0 0 0 3 3 3 0 3 3 3 3 3 3 3 10 10 3 3 3 6 10 3 6 3 3 3 3 3 3 0 0 0 0 0 0 0 0
0 0 0 0 0 0 0 0 0 0 0 0 0 0 0 0 3 0 3 3 3 6 3 6 3 3 3 6 3 10 13 3 6 6 10 6 3 3 3 3 0 0 0 0 0 0 0 0 0
0 0 0 0 0 0 0 0 0 0 0 0 0 0 0 0 3 0 3 6 10 10 6 3 3 0 0 3 10 10 6 3 6 10 10 6 3 3 3 3 0 0 0 0 0 0 0 0 0
0 0 0 0 0 0 0 0 0 0 0 0 0 0 0 0 0 3 3 6 10 6 10 16 6 3 3 6 10 6 3 3 3 10 3 3 6 6 6 6 0 0 0 0 0 0 0 0 0
0 0 0 0 0 0 0 0 0 0 0 0 3 3 3 3 3 6 6 3 6 3 6 6 13 13 10 6 6 6 3 3 6 3 6 6 6 6 6 6 3 0 0 0 0 0 0 0 0
0 0 0 0 0 0 0 0 0 0 0 0 3 3 3 3 3 3 6 3 6 6 6 3 6 10 10 6 0 3 0 3 3 3 6 6 6 6 6 0 0 0 0 0 0 0 0 0 0
0 0 0 0 0 0 0 0 0 0 0 3 0 0 0 3 3 3 3 0 6 10 10 3 6 6 10 6 3 0 0 0 0 0 6 6 3 3 3 0 0 0 0 0 0 3 0 0 0
0 0 0 0 0 0 0 0 0 0 0 3 0 0 0 0 0 3 10 6 6 10 6 6 6 6 3 6 3 3 0 0 0 0 3 3 3 3 0 0 0 0 0 0 0 3 3 0 0
0 0 0 0 0 0 0 0 0 0 0 0 0 0 0 3 3 3 10 6 3 3 6 6 3 3 0 0 3 3 3 3 0 0 3 3 3 3 3 0 0 0 0 0 0 0 3 3 0
0 0 0 0 0 0 0 0 0 0 0 0 0 0 3 3 3 0 6 6 3 3 6 3 0 0 3 3 0 3 3 3 3 0 0 3 3 3 3 0 0 0 0 0 0 0 0 0 0

GEFSSGP_con_cape1000_384.txt.gz
Probability
42 32 26 6 0 0 0 0 0 0 0 3 3 3 3 3 3 3 6 6 13 19 26 32 52 52 58 55 58 58 58 55 55 58 55 48 55 58 61 52 45 42 35 32 35 39 39 45 42
32 26 6 3 0 0 0 0 0 0 0 3 3 0 3 6 3 6 6 10 10 16 16 26 48 48 55 52 55 45 45 39 39 45 52 39 42 55 55 42 32 32 32 32 35 42 35 39 35
32 19 3 0 0 0 0 0 0 3 3 6 6 3 3 6 3 6 6 10 10 16 19 32 45 48 45 39 45 45 39 39 39 42 42 39 45 42 45 42 32 32 32 26 35 39 32 32 32
3 3 3 0 0 0 0 0 0 0 0 3 0 0 3 3 3 6 6 6 6 16 19 35 45 48 45 39 35 35 39 39 39 39 42 35 29 29 35 32 29 26 29 26 32 39 35 29 23
3 3 0 0 0 0 0 0 0 0 0 0 0 0 3 3 6 6 6 6 6 10 19 29 35 35 42 35 32 29 29 32 32 32 29 26 32 26 29 19 23 23 29 32 26 26 29 29 26
0 3 0 0 0 0 0 0 0 0 0 0 0 0 3 3 6 6 6 6 6 10 19 26 35 35 35 32 29 29 32 29 29 29 29 32 29 32 23 19 23 26 23 26 23 26 23 19 23
0 0 0 0 0 0 0 0 0 0 0 0 3 3 3 6 3 3 6 6 6 10 16 16 23 29 35 35 29 26 23 26 26 32 29 23 26 26 23 23 23 26 26 19 19 26 16 10 13
0 0 0 0 0 0 0 0 0 3 3 3 3 0 3 6 3 3 6 6 10 10 13 13 13 16 16 16 32 26 29 26 29 35 35 32 23 23 23 23 23 19 16 13 13 13 13 10 13
0 0 0 0 0 0 0 0 0 3 3 3 3 3 0 6 3 3 3 6 13 6 6 13 13 13 6 6 16 19 19 19 16 16 16 10 6 6 10 13 19 16 13 10 6 13 16 10 6
0 0 0 0 0 0 0 0 0 0 0 0 3 0 3 3 0 3 3 3 3 6 6 6 13 10 6 10 10 10 10 10 10 3 3 3 3 3 3 10 19 23 16 16 13 13 10 0 0
0 0 0 0 0 0 0 0 0 0 0 0 3 3 3 3 0 0 3 3 3 3 10 10 10 10 10 10 3 3 6 6 3 3 3 3 3 3 3 0 3 3 3 3 3 6 0 0 0
0 0 0 0 0 0 0 0 0 0 0 0 0 6 3 3 3 0 0 0 3 3 6 10 10 10 3 3 3 3 3 3 3 3 3 3 3 3 3 0 0 3 3 3 3 3 0 0 0
0 0 0 0 0 0 0 0 0 0 0 3 0 6 3 3 0 0 0 0 0 3 3 6 10 10 3 3 3 3 3 3 3 3 3 3 3 0 3 3 0 3 3 0 0 0 0 0 0
0 0 0 0 0 0 0 0 0 0 0 0 3 6 3 3 0 0 0 0 0 0 0 6 6 6 3 3 3 3 3 3 3 3 3 3 3 3 0 0 0 0 0 0 0 0 0 0 0
0 0 0 0 0 0 0 0 0 0 0 0 0 3 6 0 0 0 0 0 0 0 0 0 6 6 3 3 3 3 3 3 3 3 3 3 3 3 3 0 0 0 0 0 0 0 0 0 0
0 0 0 0 0 0 0 0 0 0 0 0 0 0 3 0 0 0 0 0 0 0 0 3 3 3 0 0 0 3 3 0 0 3 3 3 3 3 3 0 0 0 0 0 0 0 0 0 0
0 0 0 0 0 0 0 0 0 0 0 0 0 0 0 0 0 0 0 0 0 0 0 3 3 3 0 0 0 0 0 0 0 0 0 0 3 3 3 3 0 0 0 0 0 0 0 0 0
0 0 0 0 0 0 0 0 0 0 0 0 0 0 0 0 0 0 0 0 0 0 0 3 3 0 0 0 0 0 0 0 0 0 0 0 3 0 3 3 0 0 0 0 0 0 0 0 0
0 0 0 0 0 0 0 0 0 0 0 0 0 0 0 0 0 0 0 0 0 0 0 0 0 0 0 0 0 0 0 0 0 0 0 3 3 3 0 0 0 0 0 0 0 0 0 0 0
0 0 0 0 0 0 0 0 0 0 0 0 0 0 0 0 0 0 0 0 0 0 0 0 0 0 0 0 0 0 0 0 0 0 0 3 3 0 0 0 0 0 0 0 0 0 0 0 0
0 0 0 0 0 0 0 0 0 0 0 0 0 0 0 0 0 0 0 0 0 0 0 0 0 0 0 0 0 0 0 0 0 0 3 3 3 0 0 0 0 0 0 0 0 0 0 0 0
0 0 0 0 0 0 0 0 0 0 0 0 0 0 0 0 0 0 0 0 0 0 0 0 0 0 0 0 0 0 0 0 3 0 3 3 3 0 0 0 0 0 0 0 0 0 0 0 0
0 0 0 0 0 0 0 0 0 0 0 3 3 3 0 0 0 0 0 0 3 0 0 0 0 0 0 0 0 0 0 0 0 0 0 0 0 0 0 0 0 0 0 0 0 0 0 0 0
0 0 0 0 0 0 0 0 0 0 0 3 3 3 0 0 6 0 0 0 0 0 0 0 0 0 0 0 0 0 0 0 0 0 0 0 0 0 0 0 0 0 0 0 0 0 0 0 0
0 0 0 0 0 0 0 0 0 0 0 3 3 3 3 3 3 0 3 0 0 0 0 0 0 0 0 0 0 0 0 0 0 0 0 0 0 0 0 0 0 0 0 0 0 0 0 0 0
0 0 0 0 0 0 0 0 0 0 0 0 0 0 0 0 0 3 3 0 0 0 0 0 0 0 0 0 0 0 0 0 0 0 0 0 0 0 0 0 0 0 0 0 0 0 0 0 0
0 0 0 0 0 0 0 0 0 0 0 0 0 0 0 0 0 0 0 0 0 0 0 0 0 0 0 0 0 0 0 0 0 0 0 0 0 0 0 0 0 0 0 0 0 0 0 0 0
0 0 0 0 0 0 0 0 0 0 0 0 0 0 0 0 0 0 0 0 0 0 0 0 3 0 0 0 0 0 0 0 0 0 0 0 0 0 0 0 0 0 0 0 0 0 0 0 0
0 0 0 0 0 0 0 0 0 0 0 0 0 0 0 0 0 0 0 0 0 0 0 0 0 0 0 0 0 0 0 0 0 0 0 0 0 0 0 0 0 0 0 0 0 0 0 0 0
0 0 0 0 0 0 0 0 0 0 0 0 0 0 0 0 0 0 0 0 0 0 0 0 0 0 0 0 0 0 0 0 0 0 0 0 0 0 0 0 0 0 0 0 0 0 0 0 0